Regional Weather Roundup
Issued by NWS

Home | Current Version | Previous Version | Text Only | Print | Product List | Glossary On
Versions: 1 2 3 4 5 6 7 8 9 10 11 12 13 14 15 16 17 18 19 20 21 22 23 24 25 26 27 28
000
ASCA42 TJSJ 292310
RWRPR
PUERTO RICO/U.S. VIRGIN ISLANDS HOURLY WEATHER ROUNDUP
NATIONAL WEATHER SERVICE SAN JUAN PR
700 PM AST SUN MAY 29 2016

PRZ001-004-300000-
PUERTO RICO

CITY           SKY/WX    TMP DP  RH WIND       PRES   REMARKS
SAN JUAN LMM   MOCLDY    81  75  83 E7        30.00R THUNDER
AGUADILLA      PTCLDY    75  73  94 E3        30.01R
CEIBA          MOCLDY    81  77  89 E7        30.02R
$$

PRZ006-007-300000-
U.S. VIRGIN ISLANDS

CITY           SKY/WX    TMP DP  RH WIND       PRES   REMARKS
CHARLOTTE AMA  MOCLDY    84  75  74 E10       29.99R HX  92
CHRISTIANSTED  PTCLDY    77  73  88 NW5       30.01R
$$

HOURLY WEATHER ROUNDUP FOR THE NEWS MEDIA

CITY           SKY/WX    TMP DP  RH WIND       PRES   REMARKS
ORLANDO        CLOUDY    78  71  79 SE5       30.00R THUNDER
NEW YORK       PTSUNNY   70  66  87 SE8       30.08F
NEWARK         PTSUNNY   80  66  62 E6        30.04F
CHICAGO        MOSUNNY   77  58  51 W13G23    29.97F
HARTFORD       MOSUNNY   68  59  73 SE10      30.13S
BOSTON         CLOUDY    55  52  89 NE9       30.17F
DALLAS         TSTM      83  72  69 SE9       29.97F
PHILADELPHIA   LGT RAIN  77  69  76 SW14      30.08R
LOS ANGELES    MOSUNNY   66  54  65 W16       29.98F
WASHINGTON DC  LGT RAIN  74  69  85 SE7       30.07S



USA.gov is the U.S. government's official web portal to all federal, state and local government web resources and services.